Overview Statistics Trail Chart Weather Telemetry Raw packets
 

This is the latest recevied weather packets stored in our database for station/object N1ICS-1. If no packets are shown the sender has not sent any weather packets the latest 10 day(s).

<< 13 14 15 16 17 18 19 >>
Time Temp. Humidity Pressure Rain* Wind** Luminosity Snow
1788454802 31.67° C 78% 1017.3 hPa 0 mm - 817 W/m² -
1788454502 31.11° C 81% 1017.2 hPa 0 mm - 816 W/m² -
1788453901 31.67° C 79% 1017.4 hPa 0 mm - 805 W/m² -
1788453602 31.11° C 83% 1017.6 hPa 0 mm - 805 W/m² -
1788453302 31.11° C 82% 1017.6 hPa 0 mm - 803 W/m² -
1788453002 31.11° C 81% 1017.6 hPa 0 mm - 799 W/m² -
1788452101 30.56° C 81% 1017.9 hPa 0 mm - 778 W/m² -
1788451803 31.11° C 81% 1017.9 hPa 0 mm - 772 W/m² -
1788451502 30.56° C 81% 1017.9 hPa 0 mm - 766 W/m² -
1788450301 30° C 82% 1017.7 hPa 0 mm - 737 W/m² -
1788450002 30° C 82% 1017.8 hPa 0 mm - 725 W/m² -
1788449401 30° C 81% 1017.8 hPa 0 mm - 707 W/m² -
1788449102 30° C 82% 1017.8 hPa 0 mm - 699 W/m² -
1788448801 30° C 82% 1017.9 hPa 0 mm - 689 W/m² -
1788448502 30° C 83% 1017.7 hPa 0 mm - 679 W/m² -
1788448202 30° C 82% 1017.7 hPa 0 mm - 667 W/m² -
1788447902 29.44° C 83% 1017.7 hPa 0 mm - 653 W/m² -
1788447602 29.44° C 82% 1017.6 hPa 0 mm - 640 W/m² -
1788447301 29.44° C 82% 1017.6 hPa 0 mm - 627 W/m² -
1788447002 29.44° C 83% 1017.6 hPa 0 mm - 613 W/m² -
1788446702 29.44° C 83% 1017.4 hPa 0 mm - 599 W/m² -
1788446401 29.44° C 85% 1017.6 hPa 0 mm - 583 W/m² -
1788445802 28.89° C 84% 1017.6 hPa 0 mm - 550 W/m² -
1788445202 28.89° C 87% 1017.6 hPa 0 mm - 514 W/m² -
1788444602 28.33° C 86% 1017.8 hPa 0 mm - 481 W/m² -

* Rain latest hour (hover to see other rain measurements)
** Current wind speed in m/s (hover to see current wind gust speed)